Погода в Кульчинах

Украина / Хмельницкая область     49°45′24″N   26°54′53″E
темп.,
°C
ветер,
м/с
пор.,
м/с
влажн.,
%
обл.,
%
осадки,
мм/ч
давл.,
гПа
погр.,
м
26 сентября, вс
вс2600:00+15з71467100 0.0 1017619
03:00+14зсз6127773 0.1 1018494
06:00+13зсз41085100 0.0 1019399
09:00+14зсз4986100 0.1 1020504
12:00+16сз577880 0.1 1021864
15:00+17сз686496 0.2 10211241
18:00+16ссз476551 0.0 1021456
21:00+11с347198 0.0 102248
27 сентября, пн
пн2700:00+9св238063 0.0 102335
03:00+8св22877 0.0 102313
06:00+7св229156 0.0 102318
09:00+9всв34805 0.0 1024226
12:00+14всв34560 0.0 1023853
15:00+16всв44460 0.0 10221118
18:00+14всв46560 0.0 1022271
21:00+9всв38770 0.0 1023148
28 сентября, вт
вт2800:00+6в49901 0.0 1025206
03:00+5в36939 0.0 1025120
06:00+5в369335 0.0 1025112
09:00+8в46770 0.0 1025249
12:00+13в45597 0.0 10251078
15:00+15в444739 0.0 10241656
18:00+13в475423 0.0 1025302
21:00+10в355727 0.0 102779
29 сентября, ср
ср2900:00+9в366218 0.0 102899
03:00+7вюв34726 0.0 102856
06:00+7в368781 0.0 1029137
09:00+10вюв5876100 0.0 1030465
12:00+13вюв66566 0.0 10301217
15:00+14вюв5649100 0.0 10291613
18:00+12вюв5857100 0.0 1029516
21:00+11вюв5956100 0.0 1030312
30 сентября, чт
чт3000:00+8вюв511685 0.0 1031249
03:00+6вюв411740 0.0 1030255
06:00+5вюв410760 0.0 1031195
09:00+9юв511630 0.0 1030350
12:00+14ююв67450 0.0 10301309
15:00+16ююв55410 0.0 10291672
18:00+14юв35515 0.0 1029110
21:00+9юв36645 0.0 103189